Time,TemperatureF,DewpointF,PressureIn,WindDirection,WindDirectionDegrees,WindSpeedMPH,WindSpeedGustMPH,Humidity,HourlyPrecipIn,Conditions,Clouds,dailyrainin,SoftwareType,DateUTC
2013-02-23 00:00:00,26.5,22.9,29.94,WSW,257,10.0,11.0,86,0.00,,,0.00,Wunderground v.1.15,2013-02-23 06:00:00,
2013-02-23 00:06:00,26.4,22.5,29.94,West,263,11.0,15.0,85,0.00,,,0.00,Wunderground v.1.15,2013-02-23 06:06:00,
2013-02-23 00:12:00,26.2,22.3,29.94,WSW,244,13.0,13.0,85,0.00,,,0.00,Wunderground v.1.15,2013-02-23 06:12:00,
2013-02-23 00:18:00,25.9,21.7,29.94,WSW,240,15.0,19.0,84,0.00,,,0.00,Wunderground v.1.15,2013-02-23 06:18:00,
2013-02-23 00:24:00,25.7,21.5,29.94,West,259,15.0,15.0,84,0.00,,,0.00,Wunderground v.1.15,2013-02-23 06:24:00,
2013-02-23 00:30:00,25.1,20.9,29.94,WSW,253,14.0,14.0,84,0.00,,,0.00,Wunderground v.1.15,2013-02-23 06:30:00,
2013-02-23 00:36:00,24.4,20.3,29.94,WSW,254,14.0,15.0,84,0.00,,,0.00,Wunderground v.1.15,2013-02-23 06:36:00,
2013-02-23 00:41:00,23.8,19.9,29.94,WSW,255,12.0,12.0,85,0.00,,,0.00,Wunderground v.1.15,2013-02-23 06:41:00,
2013-02-23 00:48:00,23.4,19.6,29.94,WSW,255,11.0,12.0,85,0.00,,,0.00,Wunderground v.1.15,2013-02-23 06:48:00,
2013-02-23 00:54:00,23.0,19.4,29.94,WSW,252,11.0,11.0,86,0.00,,,0.00,Wunderground v.1.15,2013-02-23 06:54:00,
2013-02-23 01:01:00,22.6,19.0,29.95,SW,234,11.0,11.0,86,0.00,,,0.00,Wunderground v.1.15,2013-02-23 07:01:00,
2013-02-23 01:08:00,22.3,18.7,29.95,WSW,254,10.0,11.0,86,0.00,,,0.00,Wunderground v.1.15,2013-02-23 07:08:00,
2013-02-23 01:14:00,22.0,18.5,29.95,WSW,253,9.0,10.0,86,0.00,,,0.00,Wunderground v.1.15,2013-02-23 07:14:00,
2013-02-23 01:20:00,21.7,18.4,29.95,WSW,244,9.0,10.0,87,0.00,,,0.00,Wunderground v.1.15,2013-02-23 07:20:00,
2013-02-23 01:26:00,21.6,18.3,29.95,WSW,253,8.0,10.0,87,0.00,,,0.00,Wunderground v.1.15,2013-02-23 07:26:00,
2013-02-23 01:32:00,21.5,18.2,29.95,WSW,245,9.0,9.0,87,0.00,,,0.00,Wunderground v.1.15,2013-02-23 07:32:00,
2013-02-23 01:38:00,21.3,18.0,29.95,WSW,254,9.0,10.0,87,0.00,,,0.00,Wunderground v.1.15,2013-02-23 07:38:00,
2013-02-23 01:44:00,21.1,17.8,29.94,WSW,248,8.0,9.0,87,0.00,,,0.00,Wunderground v.1.15,2013-02-23 07:44:00,
2013-02-23 01:50:00,21.0,17.7,29.95,WSW,248,7.0,10.0,87,0.00,,,0.00,Wunderground v.1.15,2013-02-23 07:50:00,
2013-02-23 01:56:00,20.9,17.6,29.95,WSW,242,6.0,7.0,87,0.00,,,0.00,Wunderground v.1.15,2013-02-23 07:56:00,
2013-02-23 02:02:00,20.9,17.6,29.95,WSW,238,5.0,5.0,87,0.00,,,0.00,Wunderground v.1.15,2013-02-23 08:02:00,
2013-02-23 02:08:00,20.9,17.6,29.95,WSW,238,5.0,6.0,87,0.00,,,0.00,Wunderground v.1.15,2013-02-23 08:08:00,
2013-02-23 02:14:00,21.0,17.7,29.95,SW,235,6.0,7.0,87,0.00,,,0.00,Wunderground v.1.15,2013-02-23 08:14:00,
2013-02-23 02:20:00,21.1,17.8,29.94,WSW,242,6.0,6.0,87,0.00,,,0.00,Wunderground v.1.15,2013-02-23 08:20:00,
2013-02-23 02:26:00,21.1,17.8,29.95,SW,231,6.0,7.0,87,0.00,,,0.00,Wunderground v.1.15,2013-02-23 08:26:00,
2013-02-23 02:32:00,21.4,18.4,29.95,WSW,240,6.0,8.0,88,0.00,,,0.00,Wunderground v.1.15,2013-02-23 08:32:00,
2013-02-23 02:38:00,21.8,18.8,29.95,SW,235,7.0,8.0,88,0.00,,,0.00,Wunderground v.1.15,2013-02-23 08:38:00,
2013-02-23 02:44:00,22.1,18.8,29.95,SW,233,7.0,9.0,87,0.00,,,0.00,Wunderground v.1.15,2013-02-23 08:44:00,
2013-02-23 02:50:00,22.3,19.0,29.95,SW,236,7.0,7.0,87,0.00,,,0.00,Wunderground v.1.15,2013-02-23 08:50:00,
2013-02-23 02:56:00,22.4,18.8,29.94,SW,235,6.0,7.0,86,0.00,,,0.00,Wunderground v.1.15,2013-02-23 08:56:00,
2013-02-23 03:01:00,22.5,18.9,29.94,SW,233,6.0,6.0,86,0.00,,,0.00,Wunderground v.1.15,2013-02-23 09:01:00,
2013-02-23 03:08:00,22.6,19.0,29.94,WSW,239,7.0,7.0,86,0.00,,,0.00,Wunderground v.1.15,2013-02-23 09:08:00,
2013-02-23 03:14:00,22.8,19.2,29.94,WSW,237,7.0,7.0,86,0.00,,,0.00,Wunderground v.1.15,2013-02-23 09:14:00,
2013-02-23 03:20:00,22.9,19.1,29.94,SW,234,7.0,7.0,85,0.00,,,0.00,Wunderground v.1.15,2013-02-23 09:20:00,
2013-02-23 03:26:00,22.9,19.1,29.94,WSW,242,7.0,9.0,85,0.00,,,0.00,Wunderground v.1.15,2013-02-23 09:26:00,
2013-02-23 03:32:00,23.0,18.9,29.94,SW,236,7.0,7.0,84,0.00,,,0.00,Wunderground v.1.15,2013-02-23 09:32:00,
2013-02-23 03:38:00,23.0,18.9,29.94,WSW,245,6.0,7.0,84,0.00,,,0.00,Wunderground v.1.15,2013-02-23 09:38:00,
2013-02-23 03:44:00,23.1,19.0,29.94,WSW,239,6.0,7.0,84,0.00,,,0.00,Wunderground v.1.15,2013-02-23 09:44:00,
2013-02-23 03:50:00,23.1,18.7,29.94,WSW,244,6.0,7.0,83,0.00,,,0.00,Wunderground v.1.15,2013-02-23 09:50:00,
2013-02-23 03:56:00,23.2,18.8,29.94,WSW,238,7.0,9.0,83,0.00,,,0.00,Wunderground v.1.15,2013-02-23 09:56:00,
2013-02-23 04:02:00,23.3,18.6,29.94,WSW,240,8.0,12.0,82,0.00,,,0.00,Wunderground v.1.15,2013-02-23 10:02:00,
2013-02-23 04:08:00,23.3,18.6,29.94,SW,230,8.0,12.0,82,0.00,,,0.00,Wunderground v.1.15,2013-02-23 10:08:00,
2013-02-23 04:14:00,23.3,18.6,29.94,SW,236,9.0,12.0,82,0.00,,,0.00,Wunderground v.1.15,2013-02-23 10:14:00,
2013-02-23 04:20:00,23.3,18.6,29.94,WSW,240,9.0,10.0,82,0.00,,,0.00,Wunderground v.1.15,2013-02-23 10:20:00,
2013-02-23 04:26:00,23.3,18.6,29.95,WSW,248,9.0,12.0,82,0.00,,,0.00,Wunderground v.1.15,2013-02-23 10:26:00,
2013-02-23 04:32:00,23.2,18.5,29.95,WSW,252,9.0,9.0,82,0.00,,,0.00,Wunderground v.1.15,2013-02-23 10:32:00,
2013-02-23 04:38:00,23.1,18.4,29.95,WSW,238,9.0,12.0,82,0.00,,,0.00,Wunderground v.1.15,2013-02-23 10:38:00,
2013-02-23 04:44:00,23.1,18.7,29.95,WSW,250,10.0,15.0,83,0.00,,,0.00,Wunderground v.1.15,2013-02-23 10:44:00,
2013-02-23 04:50:00,23.0,18.6,29.95,WSW,257,9.0,13.0,83,0.00,,,0.00,Wunderground v.1.15,2013-02-23 10:50:00,
2013-02-23 04:56:00,22.8,18.4,29.95,SW,235,9.0,13.0,83,0.00,,,0.00,Wunderground v.1.15,2013-02-23 10:56:00,
2013-02-23 05:02:00,22.7,18.3,29.95,WSW,246,9.0,11.0,83,0.00,,,0.00,Wunderground v.1.15,2013-02-23 11:02:00,
2013-02-23 05:08:00,22.6,18.2,29.95,WSW,244,9.0,11.0,83,0.00,,,0.00,Wunderground v.1.15,2013-02-23 11:08:00,
2013-02-23 05:14:00,22.6,18.5,29.95,WSW,248,8.0,10.0,84,0.00,,,0.00,Wunderground v.1.15,2013-02-23 11:14:00,
2013-02-23 05:19:00,22.7,18.6,29.95,WSW,252,9.0,12.0,84,0.00,,,0.00,Wunderground v.1.15,2013-02-23 11:19:00,
2013-02-23 05:26:00,22.8,18.7,29.96,West,259,9.0,12.0,84,0.00,,,0.00,Wunderground v.1.15,2013-02-23 11:26:00,
2013-02-23 05:32:00,22.8,18.7,29.96,WSW,257,9.0,10.0,84,0.00,,,0.00,Wunderground v.1.15,2013-02-23 11:32:00,
2013-02-23 05:38:00,22.9,18.8,29.96,West,261,9.0,12.0,84,0.00,,,0.00,Wunderground v.1.15,2013-02-23 11:38:00,
2013-02-23 05:44:00,23.0,18.9,29.96,WSW,254,9.0,9.0,84,0.00,,,0.00,Wunderground v.1.15,2013-02-23 11:44:00,
2013-02-23 05:50:00,23.0,19.2,29.96,West,259,9.0,10.0,85,0.00,,,0.00,Wunderground v.1.15,2013-02-23 11:50:00,
2013-02-23 05:56:00,23.0,19.2,29.97,WSW,252,9.0,10.0,85,0.00,,,0.00,Wunderground v.1.15,2013-02-23 11:56:00,
2013-02-23 06:02:00,22.9,19.3,29.97,WSW,252,9.0,9.0,86,0.00,,,0.00,Wunderground v.1.15,2013-02-23 12:02:00,
2013-02-23 06:08:00,22.8,19.2,29.97,West,259,8.0,10.0,86,0.00,,,0.00,Wunderground v.1.15,2013-02-23 12:08:00,
2013-02-23 06:14:00,22.8,19.2,29.97,WSW,252,8.0,11.0,86,0.00,,,0.00,Wunderground v.1.15,2013-02-23 12:14:00,
2013-02-23 06:20:00,22.9,19.3,29.97,WSW,254,8.0,8.0,86,0.00,,,0.00,Wunderground v.1.15,2013-02-23 12:20:00,
2013-02-23 06:26:00,22.9,19.3,29.97,WSW,248,7.0,8.0,86,0.00,,,0.00,Wunderground v.1.15,2013-02-23 12:26:00,
2013-02-23 06:32:00,22.9,19.3,29.97,SW,236,6.0,8.0,86,0.00,,,0.00,Wunderground v.1.15,2013-02-23 12:32:00,
2013-02-23 06:38:00,22.9,19.3,29.97,West,262,7.0,10.0,86,0.00,,,0.00,Wunderground v.1.15,2013-02-23 12:38:00,
2013-02-23 06:44:00,22.9,19.3,29.97,WSW,256,8.0,11.0,86,0.00,,,0.00,Wunderground v.1.15,2013-02-23 12:44:00,
2013-02-23 06:50:00,23.0,19.2,29.97,WSW,246,9.0,9.0,85,0.00,,,0.00,Wunderground v.1.15,2013-02-23 12:50:00,
2013-02-23 06:56:00,23.0,19.2,29.97,West,259,9.0,10.0,85,0.00,,,0.00,Wunderground v.1.15,2013-02-23 12:56:00,
2013-02-23 07:02:00,23.0,19.2,29.97,WSW,257,8.0,9.0,85,0.00,,,0.00,Wunderground v.1.15,2013-02-23 13:02:00,
2013-02-23 07:08:00,23.0,19.2,29.96,WSW,254,8.0,9.0,85,0.00,,,0.00,Wunderground v.1.15,2013-02-23 13:08:00,
2013-02-23 07:14:00,23.0,19.2,29.97,WSW,254,8.0,9.0,85,0.00,,,0.00,Wunderground v.1.15,2013-02-23 13:14:00,
2013-02-23 07:20:00,23.0,19.2,29.96,WSW,248,8.0,12.0,85,0.00,,,0.00,Wunderground v.1.15,2013-02-23 13:20:00,
2013-02-23 07:26:00,23.1,19.3,29.96,WSW,257,9.0,9.0,85,0.00,,,0.00,Wunderground v.1.15,2013-02-23 13:26:00,
2013-02-23 07:32:00,23.1,19.0,29.96,West,261,9.0,10.0,84,0.00,,,0.00,Wunderground v.1.15,2013-02-23 13:32:00,
2013-02-23 07:38:00,23.1,19.0,29.96,WSW,248,9.0,10.0,84,0.00,,,0.00,Wunderground v.1.15,2013-02-23 13:38:00,
2013-02-23 07:44:00,23.2,18.8,29.96,WSW,249,9.0,12.0,83,0.00,,,0.00,Wunderground v.1.15,2013-02-23 13:44:00,
2013-02-23 07:50:00,23.2,18.8,29.96,WSW,256,10.0,12.0,83,0.00,,,0.00,Wunderground v.1.15,2013-02-23 13:50:00,
2013-02-23 07:56:00,23.3,18.9,29.96,WSW,250,9.0,10.0,83,0.00,,,0.00,Wunderground v.1.15,2013-02-23 13:56:00,
2013-02-23 08:02:00,23.4,19.0,29.96,West,264,9.0,11.0,83,0.00,,,0.00,Wunderground v.1.15,2013-02-23 14:02:00,
2013-02-23 08:08:00,23.4,19.0,29.97,West,262,10.0,14.0,83,0.00,,,0.00,Wunderground v.1.15,2013-02-23 14:08:00,
2013-02-23 08:14:00,23.4,19.0,29.97,West,269,11.0,11.0,83,0.00,,,0.00,Wunderground v.1.15,2013-02-23 14:14:00,
2013-02-23 08:20:00,23.5,18.8,29.97,WSW,244,11.0,11.0,82,0.00,,,0.00,Wunderground v.1.15,2013-02-23 14:20:00,
2013-02-23 08:26:00,23.5,18.8,29.97,WSW,258,11.0,13.0,82,0.00,,,0.00,Wunderground v.1.15,2013-02-23 14:26:00,
2013-02-23 08:32:00,23.6,18.9,29.97,WSW,252,11.0,11.0,82,0.00,,,0.00,Wunderground v.1.15,2013-02-23 14:32:00,
2013-02-23 08:38:00,23.6,19.2,29.97,WSW,246,11.0,13.0,83,0.00,,,0.00,Wunderground v.1.15,2013-02-23 14:38:00,
2013-02-23 08:44:00,23.5,19.4,29.97,West,264,11.0,12.0,84,0.00,,,0.00,Wunderground v.1.15,2013-02-23 14:44:00,
2013-02-23 08:50:00,23.5,19.4,29.97,WSW,258,12.0,13.0,84,0.00,,,0.00,Wunderground v.1.15,2013-02-23 14:50:00,
2013-02-23 08:56:00,23.4,19.3,29.98,WSW,255,12.0,14.0,84,0.00,,,0.00,Wunderground v.1.15,2013-02-23 14:56:00,
2013-02-23 09:01:00,23.6,19.8,29.98,WSW,248,11.0,11.0,85,0.00,,,0.00,Wunderground v.1.15,2013-02-23 15:01:00,
2013-02-23 09:08:00,23.7,19.6,29.98,West,265,10.0,12.0,84,0.00,,,0.00,Wunderground v.1.15,2013-02-23 15:08:00,
2013-02-23 09:14:00,23.8,19.7,29.97,WSW,247,11.0,15.0,84,0.00,,,0.00,Wunderground v.1.15,2013-02-23 15:14:00,
2013-02-23 09:20:00,23.8,19.1,29.97,WSW,257,11.0,11.0,82,0.00,,,0.00,Wunderground v.1.15,2013-02-23 15:20:00,
2013-02-23 09:26:00,24.0,19.3,29.97,WSW,257,10.0,13.0,82,0.00,,,0.00,Wunderground v.1.15,2013-02-23 15:26:00,
2013-02-23 09:32:00,24.3,19.6,29.97,WSW,258,11.0,11.0,82,0.00,,,0.00,Wunderground v.1.15,2013-02-23 15:32:00,
2013-02-23 09:38:00,24.7,19.7,29.97,West,263,11.0,14.0,81,0.00,,,0.00,Wunderground v.1.15,2013-02-23 15:38:00,
2013-02-23 09:43:00,24.8,19.8,29.97,WSW,242,12.0,14.0,81,0.00,,,0.00,Wunderground v.1.15,2013-02-23 15:43:00,
2013-02-23 09:50:00,25.1,19.8,29.97,West,265,12.0,12.0,80,0.00,,,0.00,Wunderground v.1.15,2013-02-23 15:50:00,
2013-02-23 09:56:00,25.1,19.5,29.97,WSW,245,12.0,12.0,79,0.00,,,0.00,Wunderground v.1.15,2013-02-23 15:56:00,
2013-02-23 10:02:00,25.6,20.0,29.97,West,261,11.0,13.0,79,0.00,,,0.00,Wunderground v.1.15,2013-02-23 16:02:00,
2013-02-23 10:08:00,25.9,20.6,29.98,West,260,11.0,15.0,80,0.00,,,0.00,Wunderground v.1.15,2013-02-23 16:08:00,
2013-02-23 10:14:00,25.4,19.8,29.98,WSW,247,12.0,14.0,79,0.00,,,0.00,Wunderground v.1.15,2013-02-23 16:14:00,
2013-02-23 10:20:00,25.6,20.6,29.98,SW,232,11.0,14.0,81,0.00,,,0.00,Wunderground v.1.15,2013-02-23 16:20:00,
2013-02-23 10:26:00,25.7,20.4,29.98,West,261,9.0,11.0,80,0.00,,,0.00,Wunderground v.1.15,2013-02-23 16:26:00,
2013-02-23 10:32:00,25.3,19.4,29.98,West,265,10.0,10.0,78,0.00,,,0.00,Wunderground v.1.15,2013-02-23 16:32:00,
2013-02-23 10:38:00,25.2,19.3,29.98,West,273,10.0,11.0,78,0.00,,,0.00,Wunderground v.1.15,2013-02-23 16:38:00,
2013-02-23 10:44:00,25.1,19.5,29.98,West,273,11.0,12.0,79,0.00,,,0.00,Wunderground v.1.15,2013-02-23 16:44:00,
2013-02-23 10:50:00,25.1,19.2,29.97,West,267,12.0,12.0,78,0.00,,,0.00,Wunderground v.1.15,2013-02-23 16:50:00,
2013-02-23 10:56:00,25.2,19.3,29.98,West,268,12.0,13.0,78,0.00,,,0.00,Wunderground v.1.15,2013-02-23 16:56:00,
2013-02-23 11:01:00,25.2,19.3,29.98,West,259,11.0,11.0,78,0.00,,,0.00,Wunderground v.1.15,2013-02-23 17:01:00,
2013-02-23 11:07:00,25.2,19.3,29.98,West,264,11.0,13.0,78,0.00,,,0.00,Wunderground v.1.15,2013-02-23 17:07:00,
2013-02-23 11:14:00,25.5,19.0,29.97,West,279,9.0,10.0,76,0.00,,,0.00,Wunderground v.1.15,2013-02-23 17:14:00,
2013-02-23 11:20:00,25.4,18.3,29.97,West,270,10.0,13.0,74,0.00,,,0.00,Wunderground v.1.15,2013-02-23 17:20:00,
2013-02-23 11:26:00,25.6,19.1,29.97,West,276,10.0,10.0,76,0.00,,,0.00,Wunderground v.1.15,2013-02-23 17:26:00,
2013-02-23 11:32:00,25.7,19.2,29.97,West,265,10.0,14.0,76,0.00,,,0.00,Wunderground v.1.15,2013-02-23 17:32:00,
2013-02-23 11:38:00,25.6,18.5,29.97,WSW,251,12.0,15.0,74,0.00,,,0.00,Wunderground v.1.15,2013-02-23 17:38:00,
2013-02-23 11:43:00,25.5,18.4,29.96,West,275,12.0,12.0,74,0.00,,,0.00,Wunderground v.1.15,2013-02-23 17:43:00,
2013-02-23 11:50:00,25.6,18.8,29.96,West,279,11.0,12.0,75,0.00,,,0.00,Wunderground v.1.15,2013-02-23 17:50:00,
2013-02-23 11:56:00,25.8,19.0,29.96,WSW,254,11.0,12.0,75,0.00,,,0.00,Wunderground v.1.15,2013-02-23 17:56:00,
2013-02-23 12:02:00,25.9,19.1,29.96,West,259,11.0,13.0,75,0.00,,,0.00,Wunderground v.1.15,2013-02-23 18:02:00,
2013-02-23 12:08:00,25.9,19.1,29.96,West,261,12.0,14.0,75,0.00,,,0.00,Wunderground v.1.15,2013-02-23 18:08:00,
2013-02-23 12:14:00,26.0,19.5,29.96,West,261,12.0,13.0,76,0.00,,,0.00,Wunderground v.1.15,2013-02-23 18:14:00,
2013-02-23 12:20:00,26.0,18.8,29.96,West,273,11.0,11.0,74,0.00,,,0.00,Wunderground v.1.15,2013-02-23 18:20:00,
2013-02-23 12:26:00,25.8,19.3,29.95,WSW,252,11.0,13.0,76,0.00,,,0.00,Wunderground v.1.15,2013-02-23 18:26:00,
2013-02-23 12:32:00,25.6,18.8,29.95,West,264,11.0,16.0,75,0.00,,,0.00,Wunderground v.1.15,2013-02-23 18:32:00,
2013-02-23 12:38:00,25.7,19.2,29.95,West,264,12.0,16.0,76,0.00,,,0.00,Wunderground v.1.15,2013-02-23 18:38:00,
2013-02-23 12:44:00,25.7,19.2,29.96,WSW,237,11.0,12.0,76,0.00,,,0.00,Wunderground v.1.15,2013-02-23 18:44:00,
2013-02-23 12:50:00,25.7,19.2,29.96,West,262,11.0,11.0,76,0.00,,,0.00,Wunderground v.1.15,2013-02-23 18:50:00,
2013-02-23 12:56:00,25.7,19.5,29.95,West,267,12.0,13.0,77,0.00,,,0.00,Wunderground v.1.15,2013-02-23 18:56:00,
2013-02-23 13:02:00,25.7,19.5,29.95,WSW,257,11.0,11.0,77,0.00,,,0.00,Wunderground v.1.15,2013-02-23 19:02:00,
2013-02-23 13:08:00,25.6,19.4,29.95,West,262,10.0,11.0,77,0.00,,,0.00,Wunderground v.1.15,2013-02-23 19:08:00,
2013-02-23 13:14:00,25.5,19.0,29.95,WNW,284,11.0,11.0,76,0.00,,,0.00,Wunderground v.1.15,2013-02-23 19:14:00,
2013-02-23 13:20:00,25.6,19.4,29.95,West,271,10.0,12.0,77,0.00,,,0.00,Wunderground v.1.15,2013-02-23 19:20:00,
2013-02-23 13:26:00,25.7,19.5,29.95,West,260,10.0,10.0,77,0.00,,,0.00,Wunderground v.1.15,2013-02-23 19:26:00,
2013-02-23 13:32:00,25.8,19.6,29.95,WSW,254,10.0,10.0,77,0.00,,,0.00,Wunderground v.1.15,2013-02-23 19:32:00,
2013-02-23 13:38:00,25.9,19.7,29.95,West,263,10.0,10.0,77,0.00,,,0.00,Wunderground v.1.15,2013-02-23 19:38:00,
2013-02-23 13:43:00,26.1,19.9,29.95,West,259,9.0,10.0,77,0.00,,,0.00,Wunderground v.1.15,2013-02-23 19:43:00,
2013-02-23 13:50:00,26.3,19.8,29.95,West,276,9.0,10.0,76,0.00,,,0.00,Wunderground v.1.15,2013-02-23 19:50:00,
2013-02-23 13:55:00,26.3,20.1,29.95,WSW,256,9.0,11.0,77,0.00,,,0.00,Wunderground v.1.15,2013-02-23 19:55:00,
2013-02-23 14:02:00,26.2,19.7,29.95,WSW,252,11.0,12.0,76,0.00,,,0.00,Wunderground v.1.15,2013-02-23 20:02:00,
2013-02-23 14:07:00,26.3,19.8,29.95,West,260,11.0,12.0,76,0.00,,,0.00,Wunderground v.1.15,2013-02-23 20:07:00,
2013-02-23 14:14:00,26.4,19.9,29.95,WSW,258,11.0,14.0,76,0.00,,,0.00,Wunderground v.1.15,2013-02-23 20:14:00,
2013-02-23 14:20:00,26.3,19.8,29.96,West,259,11.0,11.0,76,0.00,,,0.00,Wunderground v.1.15,2013-02-23 20:20:00,
2013-02-23 14:26:00,26.6,20.1,29.96,WSW,256,11.0,11.0,76,0.00,,,0.00,Wunderground v.1.15,2013-02-23 20:26:00,
2013-02-23 14:32:00,26.5,19.6,29.95,West,260,11.0,12.0,75,0.00,,,0.00,Wunderground v.1.15,2013-02-23 20:32:00,
2013-02-23 14:38:00,27.3,20.4,29.95,West,265,11.0,12.0,75,0.00,,,0.00,Wunderground v.1.15,2013-02-23 20:38:00,
2013-02-23 14:44:00,27.1,20.2,29.95,West,259,11.0,14.0,75,0.00,,,0.00,Wunderground v.1.15,2013-02-23 20:44:00,
2013-02-23 14:50:00,26.9,19.7,29.95,West,273,11.0,11.0,74,0.00,,,0.00,Wunderground v.1.15,2013-02-23 20:50:00,
2013-02-23 14:56:00,26.7,19.8,29.95,WSW,254,11.0,14.0,75,0.00,,,0.00,Wunderground v.1.15,2013-02-23 20:56:00,
2013-02-23 15:02:00,27.0,20.4,29.95,WNW,284,11.0,15.0,76,0.00,,,0.00,Wunderground v.1.15,2013-02-23 21:02:00,
2013-02-23 15:07:00,27.0,20.4,29.95,West,265,11.0,15.0,76,0.00,,,0.00,Wunderground v.1.15,2013-02-23 21:07:00,
2013-02-23 15:14:00,27.1,20.5,29.95,WSW,254,10.0,13.0,76,0.00,,,0.00,Wunderground v.1.15,2013-02-23 21:14:00,
2013-02-23 15:20:00,27.4,20.8,29.95,WSW,250,10.0,10.0,76,0.00,,,0.00,Wunderground v.1.15,2013-02-23 21:20:00,
2013-02-23 15:26:00,27.3,20.4,29.95,West,271,9.0,10.0,75,0.00,,,0.00,Wunderground v.1.15,2013-02-23 21:26:00,
2013-02-23 15:32:00,27.2,20.3,29.94,West,261,10.0,10.0,75,0.00,,,0.00,Wunderground v.1.15,2013-02-23 21:32:00,
2013-02-23 15:38:00,27.3,20.4,29.94,West,266,9.0,10.0,75,0.00,,,0.00,Wunderground v.1.15,2013-02-23 21:38:00,
2013-02-23 15:44:00,27.3,20.4,29.95,West,271,8.0,9.0,75,0.00,,,0.00,Wunderground v.1.15,2013-02-23 21:44:00,
2013-02-23 15:50:00,27.4,20.5,29.94,West,279,8.0,8.0,75,0.00,,,0.00,Wunderground v.1.15,2013-02-23 21:50:00,
2013-02-23 15:56:00,27.6,21.0,29.94,West,265,7.0,9.0,76,0.00,,,0.00,Wunderground v.1.15,2013-02-23 21:56:00,
2013-02-23 16:02:00,27.6,20.7,29.95,West,265,7.0,7.0,75,0.00,,,0.00,Wunderground v.1.15,2013-02-23 22:02:00,
2013-02-23 16:08:00,27.8,20.9,29.94,WNW,289,8.0,8.0,75,0.00,,,0.00,Wunderground v.1.15,2013-02-23 22:08:00,
2013-02-23 16:14:00,28.0,20.8,29.95,West,264,8.0,9.0,74,0.00,,,0.00,Wunderground v.1.15,2013-02-23 22:14:00,
2013-02-23 16:20:00,27.8,20.6,29.94,West,265,8.0,9.0,74,0.00,,,0.00,Wunderground v.1.15,2013-02-23 22:20:00,
2013-02-23 16:26:00,27.7,20.8,29.95,West,259,8.0,8.0,75,0.00,,,0.00,Wunderground v.1.15,2013-02-23 22:26:00,
2013-02-23 16:32:00,27.6,21.0,29.94,West,264,7.0,8.0,76,0.00,,,0.00,Wunderground v.1.15,2013-02-23 22:32:00,
2013-02-23 16:38:00,27.4,20.5,29.95,West,259,7.0,9.0,75,0.00,,,0.00,Wunderground v.1.15,2013-02-23 22:38:00,
2013-02-23 16:44:00,27.3,20.7,29.95,WSW,256,7.0,8.0,76,0.00,,,0.00,Wunderground v.1.15,2013-02-23 22:44:00,
2013-02-23 16:50:00,27.3,20.7,29.95,West,269,7.0,9.0,76,0.00,,,0.00,Wunderground v.1.15,2013-02-23 22:50:00,
2013-02-23 16:56:00,27.2,20.6,29.95,West,272,7.0,7.0,76,0.00,,,0.00,Wunderground v.1.15,2013-02-23 22:56:00,
2013-02-23 17:02:00,26.9,20.7,29.95,West,278,6.0,8.0,77,0.00,,,0.00,Wunderground v.1.15,2013-02-23 23:02:00,
2013-02-23 17:08:00,26.7,20.5,29.95,West,271,6.0,8.0,77,0.00,,,0.00,Wunderground v.1.15,2013-02-23 23:08:00,
2013-02-23 17:14:00,26.5,20.3,29.96,West,261,6.0,7.0,77,0.00,,,0.00,Wunderground v.1.15,2013-02-23 23:14:00,
2013-02-23 17:20:00,26.1,20.2,29.96,WSW,255,5.0,6.0,78,0.00,,,0.00,Wunderground v.1.15,2013-02-23 23:20:00,
2013-02-23 17:26:00,25.7,19.8,29.96,WSW,257,5.0,8.0,78,0.00,,,0.00,Wunderground v.1.15,2013-02-23 23:26:00,
2013-02-23 17:32:00,25.1,19.5,29.96,WSW,252,4.0,5.0,79,0.00,,,0.00,Wunderground v.1.15,2013-02-23 23:32:00,
2013-02-23 17:37:00,24.4,19.1,29.96,WSW,252,3.0,5.0,80,0.00,,,0.00,Wunderground v.1.15,2013-02-23 23:37:00,
2013-02-23 17:43:00,23.5,18.5,29.97,WSW,252,2.0,3.0,81,0.00,,,0.00,Wunderground v.1.15,2013-02-23 23:43:00,
2013-02-23 17:50:00,22.8,18.1,29.97,WSW,252,2.0,2.0,82,0.00,,,0.00,Wunderground v.1.15,2013-02-23 23:50:00,
2013-02-23 17:56:00,22.3,17.9,29.97,WSW,252,2.0,2.0,83,0.00,,,0.00,Wunderground v.1.15,2013-02-23 23:56:00,
2013-02-23 18:02:00,22.0,17.9,29.97,WSW,252,2.0,3.0,84,0.00,,,0.00,Wunderground v.1.15,2013-02-24 00:02:00,
2013-02-23 18:07:00,22.1,17.7,29.97,WSW,242,3.0,3.0,83,0.00,,,0.00,Wunderground v.1.15,2013-02-24 00:07:00,
2013-02-23 18:14:00,21.8,17.4,29.98,WSW,242,2.0,3.0,83,0.00,,,0.00,Wunderground v.1.15,2013-02-24 00:14:00,
2013-02-23 18:20:00,21.4,17.0,29.98,WSW,242,1.0,1.0,83,0.00,,,0.00,Wunderground v.1.15,2013-02-24 00:20:00,
2013-02-23 18:26:00,21.1,16.7,29.98,WSW,242,0.0,1.0,83,0.00,,,0.00,Wunderground v.1.15,2013-02-24 00:26:00,
2013-02-23 18:32:00,20.7,16.6,29.98,WSW,242,1.0,2.0,84,0.00,,,0.00,Wunderground v.1.15,2013-02-24 00:32:00,
2013-02-23 18:38:00,20.4,16.3,29.98,WSW,242,2.0,2.0,84,0.00,,,0.00,Wunderground v.1.15,2013-02-24 00:38:00,
2013-02-23 18:44:00,20.1,16.0,29.98,WSW,242,1.0,2.0,84,0.00,,,0.00,Wunderground v.1.15,2013-02-24 00:44:00,
2013-02-23 18:50:00,19.9,16.1,29.98,WSW,242,1.0,2.0,85,0.00,,,0.00,Wunderground v.1.15,2013-02-24 00:50:00,
2013-02-23 18:56:00,19.5,15.7,29.98,WSW,242,2.0,2.0,85,0.00,,,0.00,Wunderground v.1.15,2013-02-24 00:56:00,
2013-02-23 19:02:00,19.4,15.6,29.98,WSW,242,2.0,2.0,85,0.00,,,0.00,Wunderground v.1.15,2013-02-24 01:02:00,
2013-02-23 19:08:00,19.2,15.4,29.98,WSW,242,2.0,2.0,85,0.00,,,0.00,Wunderground v.1.15,2013-02-24 01:08:00,
2013-02-23 19:14:00,19.0,15.2,29.98,WSW,242,2.0,2.0,85,0.00,,,0.00,Wunderground v.1.15,2013-02-24 01:14:00,
2013-02-23 19:20:00,18.8,15.0,29.98,WSW,242,2.0,2.0,85,0.00,,,0.00,Wunderground v.1.15,2013-02-24 01:20:00,
2013-02-23 19:26:00,18.6,14.8,29.98,WSW,242,1.0,2.0,85,0.00,,,0.00,Wunderground v.1.15,2013-02-24 01:26:00,
2013-02-23 19:32:00,18.3,14.5,29.98,WSW,242,0.0,2.0,85,0.00,,,0.00,Wunderground v.1.15,2013-02-24 01:32:00,
2013-02-23 19:38:00,18.1,14.6,29.98,WSW,242,1.0,2.0,86,0.00,,,0.00,Wunderground v.1.15,2013-02-24 01:38:00,
2013-02-23 19:44:00,17.8,14.3,29.98,WSW,242,2.0,2.0,86,0.00,,,0.00,Wunderground v.1.15,2013-02-24 01:44:00,
2013-02-23 19:50:00,17.5,14.0,29.98,WSW,242,1.0,1.0,86,0.00,,,0.00,Wunderground v.1.15,2013-02-24 01:50:00,
2013-02-23 19:55:00,17.5,14.0,29.98,WSW,242,0.0,1.0,86,0.00,,,0.00,Wunderground v.1.15,2013-02-24 01:55:00,
2013-02-23 20:02:00,17.2,13.7,29.98,WSW,242,1.0,2.0,86,0.00,,,0.00,Wunderground v.1.15,2013-02-24 02:02:00,
2013-02-23 20:08:00,16.7,13.2,29.98,WSW,242,1.0,2.0,86,0.00,,,0.00,Wunderground v.1.15,2013-02-24 02:08:00,
2013-02-23 20:14:00,16.2,12.7,29.98,WSW,242,0.0,2.0,86,0.00,,,0.00,Wunderground v.1.15,2013-02-24 02:14:00,
2013-02-23 20:20:00,15.8,12.4,29.99,WSW,242,1.0,1.0,86,0.00,,,0.00,Wunderground v.1.15,2013-02-24 02:20:00,
2013-02-23 20:26:00,15.8,12.6,29.99,WSW,242,1.0,1.0,87,0.00,,,0.00,Wunderground v.1.15,2013-02-24 02:26:00,
2013-02-23 20:32:00,15.6,12.4,29.99,WSW,242,2.0,2.0,87,0.00,,,0.00,Wunderground v.1.15,2013-02-24 02:32:00,
2013-02-23 20:38:00,15.4,12.2,29.99,WSW,242,1.0,2.0,87,0.00,,,0.00,Wunderground v.1.15,2013-02-24 02:38:00,
2013-02-23 20:44:00,15.7,12.8,29.99,WSW,242,1.0,2.0,88,0.00,,,0.00,Wunderground v.1.15,2013-02-24 02:44:00,
2013-02-23 20:50:00,15.9,13.0,29.99,WSW,242,1.0,2.0,88,0.00,,,0.00,Wunderground v.1.15,2013-02-24 02:50:00,
2013-02-23 20:56:00,16.4,13.7,29.99,WSW,242,3.0,4.0,89,0.00,,,0.00,Wunderground v.1.15,2013-02-24 02:56:00,
2013-02-23 21:02:00,16.8,14.1,29.99,WSW,242,3.0,4.0,89,0.00,,,0.00,Wunderground v.1.15,2013-02-24 03:02:00,
2013-02-23 21:08:00,17.0,14.1,29.99,WSW,242,3.0,4.0,88,0.00,,,0.00,Wunderground v.1.15,2013-02-24 03:08:00,
2013-02-23 21:13:00,16.8,13.9,29.99,WSW,242,2.0,3.0,88,0.00,,,0.00,Wunderground v.1.15,2013-02-24 03:13:00,
2013-02-23 21:20:00,16.8,13.9,29.99,WSW,242,2.0,2.0,88,0.00,,,0.00,Wunderground v.1.15,2013-02-24 03:20:00,
2013-02-23 21:26:00,16.4,13.2,29.99,WSW,242,1.0,2.0,87,0.00,,,0.00,Wunderground v.1.15,2013-02-24 03:26:00,
2013-02-23 21:32:00,16.2,13.0,29.99,WSW,242,0.0,0.0,87,0.00,,,0.00,Wunderground v.1.15,2013-02-24 03:32:00,
2013-02-23 21:38:00,16.0,13.1,29.99,WSW,242,1.0,2.0,88,0.00,,,0.00,Wunderground v.1.15,2013-02-24 03:38:00,
2013-02-23 21:44:00,15.8,12.9,30.00,WSW,242,2.0,3.0,88,0.00,,,0.00,Wunderground v.1.15,2013-02-24 03:44:00,
2013-02-23 21:50:00,15.6,12.7,29.99,WSW,242,2.0,2.0,88,0.00,,,0.00,Wunderground v.1.15,2013-02-24 03:50:00,
2013-02-23 21:56:00,15.3,12.4,29.99,WSW,242,2.0,3.0,88,0.00,,,0.00,Wunderground v.1.15,2013-02-24 03:56:00,
2013-02-23 22:01:00,15.1,12.2,29.99,WSW,242,2.0,3.0,88,0.00,,,0.00,Wunderground v.1.15,2013-02-24 04:01:00,
2013-02-23 22:08:00,15.0,12.3,30.00,WSW,242,2.0,3.0,89,0.00,,,0.00,Wunderground v.1.15,2013-02-24 04:08:00,
2013-02-23 22:14:00,14.8,11.9,29.99,WSW,242,1.0,1.0,88,0.00,,,0.00,Wunderground v.1.15,2013-02-24 04:14:00,
2013-02-23 22:20:00,14.5,11.6,29.99,WSW,242,0.0,1.0,88,0.00,,,0.00,Wunderground v.1.15,2013-02-24 04:20:00,
2013-02-23 22:26:00,14.1,11.2,29.99,WSW,242,0.0,0.0,88,0.00,,,0.00,Wunderground v.1.15,2013-02-24 04:26:00,
2013-02-23 22:32:00,13.5,10.4,29.99,WSW,242,0.0,0.0,87,0.00,,,0.00,Wunderground v.1.15,2013-02-24 04:32:00,
2013-02-23 22:38:00,13.2,10.3,29.99,WSW,242,0.0,0.0,88,0.00,,,0.00,Wunderground v.1.15,2013-02-24 04:38:00,
2013-02-23 22:44:00,13.0,10.1,29.99,WSW,242,0.0,0.0,88,0.00,,,0.00,Wunderground v.1.15,2013-02-24 04:44:00,
2013-02-23 22:49:00,12.6,9.7,29.99,WSW,242,0.0,0.0,88,0.00,,,0.00,Wunderground v.1.15,2013-02-24 04:49:00,
2013-02-23 22:56:00,12.0,9.1,29.99,WSW,242,0.0,0.0,88,0.00,,,0.00,Wunderground v.1.15,2013-02-24 04:56:00,
2013-02-23 23:00:00,11.9,9.0,29.99,WSW,242,0.0,0.0,88,0.00,,,0.00,Wunderground v.1.15,2013-02-24 05:00:00,
2013-02-23 23:02:00,11.8,9.2,29.99,WSW,242,0.0,0.0,89,0.00,,,0.00,Wunderground v.1.15,2013-02-24 05:02:00,
2013-02-23 23:04:00,11.9,9.3,29.99,WSW,242,0.0,0.0,89,0.00,,,0.00,Wunderground v.1.15,2013-02-24 05:04:00,
2013-02-23 23:10:00,12.1,9.5,29.99,WSW,242,0.0,1.0,89,0.00,,,0.00,Wunderground v.1.15,2013-02-24 05:10:00,
2013-02-23 23:16:00,12.1,9.5,29.99,WSW,242,0.0,1.0,89,0.00,,,0.00,Wunderground v.1.15,2013-02-24 05:16:00,
2013-02-23 23:22:00,11.8,9.2,30.00,WSW,242,0.0,0.0,89,0.00,,,0.00,Wunderground v.1.15,2013-02-24 05:22:00,
2013-02-23 23:28:00,11.8,9.2,30.00,WSW,242,1.0,2.0,89,0.00,,,0.00,Wunderground v.1.15,2013-02-24 05:28:00,
2013-02-23 23:34:00,11.7,9.1,30.00,WSW,242,1.0,1.0,89,0.00,,,0.00,Wunderground v.1.15,2013-02-24 05:34:00,
2013-02-23 23:40:00,11.7,9.1,30.00,WSW,242,0.0,0.0,89,0.00,,,0.00,Wunderground v.1.15,2013-02-24 05:40:00,
2013-02-23 23:46:00,11.5,8.9,30.00,WSW,242,1.0,2.0,89,0.00,,,0.00,Wunderground v.1.15,2013-02-24 05:46:00,
2013-02-23 23:52:00,11.5,8.9,30.00,WSW,242,2.0,3.0,89,0.00,,,0.00,Wunderground v.1.15,2013-02-24 05:52:00,
2013-02-23 23:58:00,11.3,8.7,30.00,WSW,242,2.0,3.0,89,0.00,,,0.00,Wunderground v.1.15,2013-02-24 05:58:00,